Bandera, Texas, United States (78003)
Lat: 29.73N, Lon: 99.07W
Wx Zone: TXZ187
Local Info
Past Weather Observations for Yesterday

NOTE: This archive is for the closest National Weather Service station to Bandera. Information may differ from the station used for current weather conditions.

Click here for Long-term Archive

Time Weather Temperature Dewpoint Humidity Pressure Winds Precip Visibility
23:51
Clear
59°F / 15°C 55°F / 13°C 88% 30.15 in
(1021 mb)
NNE 5.8 mph
(NNE 9 kph)
- 10SM
22:51
Clear
63°F / 17°C 55°F / 13°C 77% 30.12 in
(1020 mb)
Calm - 10SM
21:51
Clear
68°F / 20°C 57°F / 14°C 69% 30.12 in
(1020 mb)
SE 4.6 mph
(SE 7 kph)
- 10SM
20:51
Partly Cloudy
72°F / 22°C 57°F / 14°C 61% 30.12 in
(1020 mb)
SSE 9.2 mph
(SSE 15 kph)
- 10SM
19:51
Overcast
72°F / 22°C 61°F / 16°C 69% 30.12 in
(1020 mb)
E 4.6 mph
(E 7 kph)
- 10SM
18:51
Overcast
73°F / 23°C 61°F / 16°C 65% 30.09 in
(1019 mb)
W 3.5 mph
(W 6 kph)
- 10SM
17:51
Mostly Cloudy
75°F / 24°C 57°F / 14°C 54% 30.09 in
(1019 mb)
SW 3.5 mph
(SW 6 kph)
- 10SM
16:51
Mostly Cloudy
79°F / 26°C 57°F / 14°C 48% 30.06 in
(1018 mb)
SSW 6.9 mph
(SSW 11 kph)
- 10SM
15:51
Mostly Cloudy
79°F / 26°C 57°F / 14°C 48% 30.09 in
(1019 mb)
N 4.6 mph
(N 7 kph)
- 10SM
14:51
Partly Cloudy
81°F / 27°C 57°F / 14°C 45% 30.09 in
(1019 mb)
Calm - 10SM
13:51
Partly Cloudy
79°F / 26°C 57°F / 14°C 48% 30.09 in
(1019 mb)
Variable 5.8 mph
(Variable 9 kph)
- 10SM
12:51
Mostly Cloudy
77°F / 25°C 59°F / 15°C 54% 30.12 in
(1020 mb)
SSE 5.8 mph
(SSE 9 kph)
- 10SM
11:51
Partly Cloudy
75°F / 24°C 59°F / 15°C 57% 30.18 in
(1022 mb)
Calm - 10SM
10:51
Overcast
73°F / 23°C 59°F / 15°C 61% 30.18 in
(1022 mb)
Variable 3.5 mph
(Variable 6 kph)
- 10SM
09:51
Overcast
70°F / 21°C 61°F / 16°C 73% 30.18 in
(1022 mb)
Variable 4.6 mph
(Variable 7 kph)
- 10SM
08:51
Overcast
68°F / 20°C 61°F / 16°C 78% 30.18 in
(1022 mb)
SE 3.5 mph
(SE 6 kph)
- 10SM
07:51
Mostly Cloudy
Fog And Mist
64°F / 18°C 64°F / 18°C 100% 30.15 in
(1021 mb)
ENE 4.6 mph
(ENE 7 kph)
- 6SM
06:51
Overcast
63°F / 17°C 63°F / 17°C 100% 30.15 in
(1021 mb)
NE 4.6 mph
(NE 7 kph)
- 8SM
05:59
Mostly Cloudy
63°F / 17°C 63°F / 17°C 100% 30.12 in
(1020 mb)
NE 4.6 mph
(NE 7 kph)
- 7SM
05:51
Mostly Cloudy
63°F / 17°C 63°F / 17°C 100% 30.12 in
(1020 mb)
NNE 5.8 mph
(NNE 9 kph)
- 7SM
04:51
Overcast
63°F / 17°C 63°F / 17°C 100% 30.09 in
(1019 mb)
S 4.6 mph
(S 7 kph)
- 10SM
04:09
Overcast
63°F / 17°C N/A N/A 30.12 in
(1020 mb)
ESE 6.9 mph
(ESE 11 kph)
- 9SM
03:51
Overcast
64°F / 18°C N/A N/A 30.12 in
(1020 mb)
Calm 0.00 in
(0.00 mm)
9SM
02:51
Overcast
Light Rain
63°F / 17°C N/A N/A 30.12 in
(1020 mb)
NNW 3.5 mph
(NNW 6 kph)
0.03 in
(0.76 mm)
10SM
02:25
Mostly Cloudy
Light Rain
63°F / 17°C 63°F / 17°C 100% 30.12 in
(1020 mb)
NNW 11.5 mph
(NNW 19 kph)
0.02 in
(0.51 mm)
7SM
01:51
Overcast
Light Rain
64°F / 18°C 64°F / 18°C 100% 30.09 in
(1019 mb)
SSE 10.4 mph
(SSE 17 kph)
0.05 in
(1.27 mm)
8SM
00:51
Partly Cloudy
Light Rain
66°F / 19°C 61°F / 16°C 83% 30.12 in
(1020 mb)
SSE 10.4 mph
(SSE 17 kph)
0.01 in
(0.25 mm)
10SM
Time Weather Temperature Dewpoint Humidity Pressure Winds Precip Visibility


Weather for websites

WeatherForYou.com, LLC is not responsible for any damages or problems caused by this service. Current weather conditions are obtained from the closest station including government and personal stations which may have varying degrees of accuracy. Weather forecasts are derived from the NOAA NDFD. Like all things, this site belongs to Jesus Christ... He just trusts me to maintain it. If you have any questions or comments email webmaster@weatherforyou.com

Copyright © 2014, WeatherForYou.com LLC. All rights reserved.